Voltar ao catálogo

THORAD AGENA D DEB

AtivoSSO
NORAD 10136·DEBRIS·🇺🇸 United States

Lançado Apr 8, 1970 de Vandenberg Space Force Base

Loading…

Próximas Passagens (próximas 24 horas)

TLE

AtualizadoSource: Space-Track

Época: Sep 14, 2026, 10:06 UTC

1 10136U 70025NQ  26257.42097554  .00000002  00000-0  75352-4 0  9991
2 10136 100.1762 235.6072 0001664 114.7302  48.7989 13.52045021782555

Acompanhe THORAD AGENA D DEB em tempo real com AllMySat

Download on the App Store